Location: Charlottesville
(38.0290°N, 78.4770°W)
Time: 20:16:58
(UTC-04:00)

Envisat - Pass Details

Date: 14 October 2017
Orbit: 764 x 766 km, 98.2° (Epoch: 17 October)

Event Time Altitude Azimuth Distance (km) Brightness Sun altitude
Exits shadow 22:00:14 18° 308° (NW) 1,789 5.4 -40.0°
Drops below altitude 10° 22:01:58 10° 323° (NW) 2,306 6.0 -40.4°
Sets 22:04:36 0° 335° (NNW) 3,237 6.8 -40.8°
